Temperature
15 15 16 16 16 16 16 16 15 15 14 14 14 14 14 14 14 13 13 13 13 13 13 13 13 12 12 12 12 12 12 12 12 11 11 11 11 11 11 11 11 11 11
15 15 15 15 15 15 15 15 15 14 14 14 14 14 14 14 13 13 13 13 13 13 13 13 13 12 12 12 12 12 12 11 11 11 11 11 11 11 11 11 11 11 11
15 15 15 15 15 15 15 15 14 14 14 14 14 14 14 14 14 13 13 13 13 13 13 13 13 12 12 12 12 12 11 11 11 11 11 11 11 10 10 10 10 10 10
14 15 15 15 15 15 15 15 14 14 14 14 14 14 13 14 14 13 13 13 13 13 13 13 12 12 12 12 11 11 11 11 11 11 10 10 10 10 10 10 10 10 10
14 14 14 15 15 15 14 14 14 14 14 13 13 13 13 13 13 13 13 13 13 13 13 13 12 12 12 11 11 11 11 10 10 10 10 10 10 10 10 10 10 10 10
14 14 14 14 14 14 14 14 14 14 13 13 13 13 13 13 13 13 13 13 13 13 13 12 12 11 11 11 11 11 10 10 10 10 9 9 9 9 9 9 9 9 9
14 14 14 14 14 14 14 14 14 13 13 13 13 13 13 13 13 13 13 13 13 12 12 12 11 11 11 11 11 10 10 10 9 9 9 9 9 9 9 9 9 9 9
14 14 14 14 14 13 13 13 13 13 13 13 13 13 13 13 13 13 13 13 13 12 12 11 11 11 10 10 10 10 9 9 9 9 9 9 8 8 8 8 8 8 9
13 13 13 13 13 13 13 13 13 13 13 13 13 13 13 13 12 12 12 12 12 12 11 11 10 10 10 10 10 9 9 9 8 8 8 8 8 8 8 8 8 8 8
13 13 13 13 13 13 13 13 13 12 12 12 12 12 12 12 12 12 12 11 11 11 11 10 10 10 9 9 9 9 8 8 8 8 7 7 7 7 7 8 8 8 8
12 13 13 12 12 12 12 12 12 12 12 12 12 12 12 12 12 12 11 11 11 10 10 10 10 9 9 9 8 8 8 7 7 7 7 7 7 7 7 7 7 7 7
12 12 12 12 12 12 12 12 12 12 12 12 12 12 12 12 12 11 11 11 10 10 9 9 9 9 8 8 8 7 7 7 7 7 6 6 6 6 6 7 7 7 7
12 12 12 12 12 12 12 12 12 12 12 11 11 11 11 11 11 11 11 10 10 9 9 9 8 8 8 7 7 7 6 6 6 6 6 6 6 6 6 6 6 6 7
12 12 12 12 12 11 11 11 11 11 11 11 11 11 11 11 11 11 10 10 9 9 8 8 8 7 7 7 6 6 6 6 5 5 5 5 5 5 5 6 6 6 6
11 12 11 11 11 11 11 11 11 11 11 11 11 11 11 10 10 10 10 10 9 8 8 7 7 7 6 6 6 5 5 5 5 5 5 5 5 5 5 5 5 6 6
11 11 11 10 10 10 10 10 10 10 10 10 10 10 10 10 10 10 10 9 8 8 7 7 6 6 6 5 5 4 4 4 4 4 4 4 4 4 4 4 5 5 5
10 10 10 10 10 10 10 10 10 9 9 10 10 10 9 9 9 9 9 9 8 7 6 6 5 5 5 4 4 4 4 3 3 3 3 3 3 3 4 4 4 4 5
9 9 9 9 9 9 9 9 9 9 9 9 9 9 9 9 9 9 9 8 7 6 6 5 5 4 4 4 3 3 3 3 3 3 3 3 3 3 3 3 4 4 4
9 9 9 9 9 9 8 9 9 9 9 9 8 8 9 8 8 8 8 7 6 6 5 4 4 4 3 3 3 2 2 2 2 2 2 2 2 3 3 3 3 3 4
8 8 8 8 8 8 8 8 8 8 8 8 8 8 8 8 8 7 7 6 5 5 4 3 3 3 3 2 2 2 2 2 2 2 2 2 2 2 2 2 3 3 3
7 7 7 7 7 7 7 7 7 7 7 7 7 7 7 7 7 6 6 5 4 4 3 3 2 2 2 2 2 2 2 2 1 2 2 2 1 2 2 2 2 2 2
7 7 6 6 7 7 7 7 7 7 7 7 7 7 7 6 6 5 5 4 4 3 3 2 2 1 1 1 1 1 1 1 1 1 1 1 1 1 1 1 1 2 2
6 6 6 6 6 6 6 6 6 6 6 6 6 6 6 6 5 5 4 3 3 2 2 2 1 1 1 1 1 1 1 1 1 1 1 1 1 1 1 1 1 1 1
4 5 5 5 5 5 5 5 5 5 5 5 5 5 5 5 5 4 3 3 2 2 2 1 1 1 1 1 1 1 1 0 0 0 -0 -0 0 0 0 0 1 1 1
3 3 4 4 4 4 4 4 4 4 4 4 4 4 4 4 4 3 2 2 2 2 1 1 1 1 1 1 0 0 0 -0 -0 -0 -0 -1 -0 -0 0 0 0 0 0
2 2 2 3 3 3 3 3 3 3 3 3 4 4 3 3 3 2 2 2 1 1 1 1 0 0 0 0 0 0 -0 -0 -0 -0 -0 -1 -0 -0 -0 0 -0 -0 0
Wind_Speed
7 7 8 11 11 12 10 8 8 8 7 7 8 5 4 5 3 6 10 11 9 7 5 5 5 5 5 4 3 2 2 3 3 3 3 3 3 3 3 3 3 4 4
7 5 5 6 7 10 11 8 7 4 4 4 3 3 3 2 2 2 8 10 10 8 7 6 5 4 4 3 2 1 1 1 2 2 3 3 4 4 4 4 3 3 2
9 6 5 5 5 9 9 7 6 4 2 2 2 2 2 1 0 1 3 7 9 8 7 6 5 4 3 2 1 2 1 1 1 1 3 4 5 5 5 5 5 3 3
12 7 5 5 7 8 5 3 2 2 2 2 2 2 1 1 1 2 1 2 5 6 5 5 5 4 3 3 2 2 2 2 1 1 2 4 5 5 5 6 6 6 5
11 7 5 5 7 4 3 4 3 3 3 3 3 1 1 1 1 1 1 2 4 6 5 5 5 4 4 3 3 2 2 2 2 2 2 4 5 5 6 6 6 6 6
10 8 4 5 6 4 4 4 4 3 3 3 2 1 1 2 1 1 1 3 5 5 5 5 6 5 4 3 3 2 2 3 3 3 3 4 5 6 6 6 6 6 7
8 6 5 5 6 5 5 5 4 4 3 2 2 1 2 3 3 2 2 2 3 5 5 5 5 5 5 4 4 3 3 3 3 3 4 5 6 6 7 8 7 7 6
6 5 5 5 5 5 6 5 4 4 3 3 3 2 1 1 1 2 3 3 3 4 4 4 5 6 6 6 5 4 3 3 3 3 4 5 6 7 8 8 7 6 5
5 5 4 4 5 5 5 5 5 5 4 4 4 3 3 3 1 1 2 3 3 2 2 5 6 7 7 7 6 6 5 4 3 3 4 5 6 8 8 8 8 7 6
4 5 4 4 4 4 4 5 4 4 4 3 2 2 2 2 3 1 1 2 3 3 3 3 4 6 7 7 7 6 5 5 4 4 4 6 7 8 9 9 8 8 7
4 4 5 4 5 5 5 5 4 4 3 3 3 2 2 1 2 3 2 2 1 2 3 3 4 5 6 7 7 6 5 4 4 4 5 6 8 9 9 9 8 8 8
3 4 5 5 5 5 6 5 5 6 4 4 3 3 3 2 3 3 3 3 3 2 3 3 4 5 6 7 6 6 6 4 4 4 5 7 8 9 10 10 8 8 7
3 5 5 5 5 5 5 5 5 5 5 5 4 3 3 3 2 2 3 2 2 1 2 2 3 7 7 7 6 6 6 5 5 6 6 7 8 9 10 10 9 8 7
4 5 5 5 5 5 5 5 5 5 5 5 5 5 3 2 2 2 3 3 2 2 2 3 2 6 8 8 6 5 5 5 6 6 6 7 8 8 9 9 9 8 7
2 4 5 5 6 6 7 6 5 5 5 5 5 5 3 2 2 2 2 3 4 4 4 3 2 3 7 8 6 6 5 5 5 5 6 7 7 8 9 9 9 7 6
2 3 4 5 5 6 7 6 5 5 6 5 4 5 4 3 3 3 2 2 2 3 3 1 2 3 6 6 6 6 6 5 5 5 5 6 7 8 9 10 9 8 6
1 3 4 5 5 6 6 6 6 7 7 6 6 6 6 5 4 4 3 2 2 3 3 1 2 3 3 5 5 5 4 5 5 5 5 5 5 6 8 9 10 9 7
1 2 3 4 5 5 5 6 7 7 7 7 7 7 7 5 6 5 4 4 3 3 3 3 2 2 3 4 4 4 3 4 5 5 4 4 4 5 6 8 9 10 9
1 1 2 3 4 5 6 6 6 7 7 7 7 7 7 7 6 5 5 4 3 3 2 3 2 2 2 3 3 2 2 2 3 3 3 3 3 5 6 7 8 9 8
2 2 2 3 4 4 5 6 6 6 6 6 6 6 7 8 7 7 6 5 4 4 3 3 3 3 2 3 3 3 3 2 2 2 3 3 3 3 5 6 8 8 8
3 2 2 2 3 4 5 6 6 6 6 6 5 5 5 6 8 7 6 6 6 5 4 4 3 3 4 3 4 4 4 3 2 2 1 1 2 2 3 5 6 7 7
3 3 3 4 4 4 6 8 6 5 6 7 6 5 5 6 7 8 8 8 8 7 6 5 4 4 5 5 4 4 4 3 3 3 3 2 2 2 2 3 4 5 6
4 4 4 4 5 6 8 9 9 6 6 6 7 7 6 6 8 6 7 8 6 6 6 5 5 5 5 6 7 5 5 4 3 4 3 2 2 2 2 4 3 4 4
5 5 5 5 5 6 9 10 10 7 5 6 7 8 8 7 8 9 7 6 5 4 4 3 3 3 3 5 7 7 6 5 4 1 3 3 2 2 3 3 3 3 4
7 6 6 6 6 6 9 11 10 5 6 7 7 8 9 9 13 15 10 8 6 5 4 5 5 5 6 8 8 6 6 4 3 3 2 3 3 2 2 2 3 3 4
7 7 7 7 7 7 10 12 12 6 7 7 7 9 13 13 16 17 11 10 9 7 6 5 4 5 4 5 7 6 7 5 3 3 4 3 3 3 2 1 2 3 3
Wind_Direction
150 155 163 168 176 181 174 185 209 206 200 195 208 209 187 203 206 153 161 173 181 195 218 252 267 269 259 247 252 256 235 247 272 286 293 302 293 302 318 329 345 359 13
156 158 159 163 177 173 171 192 211 195 190 185 196 202 213 209 226 163 161 182 192 201 216 236 249 255 247 234 233 182 150 258 285 298 301 301 305 286 286 298 307 310 330
163 162 156 159 169 166 173 191 214 186 174 163 190 222 202 186 255 269 162 173 188 199 211 222 221 220 206 194 180 139 102 55 305 304 321 319 304 300 286 277 275 281 279
165 162 154 159 167 169 171 175 191 151 163 164 207 226 171 157 277 285 284 174 159 161 182 196 189 180 178 180 169 148 115 93 71 8 337 331 324 306 298 285 269 261 259
165 160 155 162 166 161 161 172 177 165 178 193 210 189 158 179 219 248 353 87 106 115 127 146 157 163 166 169 162 148 116 116 94 54 10 344 339 330 312 302 284 264 256
168 162 156 165 160 154 169 173 177 183 182 178 182 183 211 218 199 143 107 89 98 107 115 125 138 138 143 147 149 145 123 109 94 60 34 12 358 345 330 314 304 282 263
169 163 161 167 160 163 175 178 177 184 195 158 134 232 257 225 174 142 119 96 94 105 110 110 121 124 122 123 120 125 131 119 95 66 46 27 10 356 345 332 310 296 277
160 164 167 169 167 163 172 181 179 174 184 167 159 172 235 258 202 144 124 115 108 111 107 100 101 101 105 106 95 95 107 111 90 64 42 23 9 355 345 336 331 317 300
153 157 164 164 169 171 180 186 187 183 189 194 180 169 176 204 169 162 163 142 140 132 114 98 91 90 96 103 98 82 82 86 75 55 33 16 5 355 347 339 335 327 314
151 158 163 166 169 173 182 189 186 181 174 192 197 197 187 146 147 172 235 178 163 153 140 125 110 99 97 99 96 88 82 76 63 40 28 22 10 358 352 343 335 334 327
166 169 167 178 180 180 188 183 171 174 168 181 178 175 199 170 171 165 205 211 202 185 153 138 125 115 104 103 99 91 82 71 61 40 26 22 15 7 360 353 343 334 334
182 181 180 188 190 185 183 183 177 171 172 180 180 173 164 167 187 183 202 208 209 199 158 136 128 123 114 109 103 99 83 67 54 46 38 33 23 12 4 357 345 340 336
194 199 192 194 195 189 178 170 176 175 176 178 180 182 182 184 164 169 183 206 196 176 159 154 139 131 125 121 117 105 87 74 64 56 46 38 31 18 8 359 351 346 338
205 197 192 194 188 183 181 177 180 182 179 183 181 177 178 187 173 173 173 173 196 214 198 186 121 131 132 129 131 119 102 89 76 64 52 44 34 21 12 2 356 351 344
203 189 190 195 189 186 185 178 182 180 176 181 176 171 172 174 162 162 159 161 174 204 220 178 134 132 132 134 143 135 124 112 92 76 65 52 38 27 18 12 6 0 359
196 179 184 186 186 184 180 176 174 176 169 172 168 165 169 167 160 157 160 165 169 183 206 135 125 133 136 139 150 141 139 127 110 96 80 63 47 35 24 16 17 19 13
207 198 195 190 186 186 179 175 179 174 175 175 172 172 178 171 165 166 160 176 187 180 206 164 102 118 136 148 146 147 148 136 127 114 96 72 52 40 30 23 23 25 26
217 207 199 190 189 187 183 184 184 180 183 181 179 175 180 173 173 169 171 186 190 190 189 191 160 146 149 160 152 149 147 135 130 125 109 85 62 48 38 33 30 31 38
260 218 201 198 195 190 189 192 188 187 188 185 182 181 179 174 183 177 176 180 181 178 172 173 168 146 136 144 139 143 152 137 143 143 131 109 81 59 44 41 37 38 45
308 266 229 210 202 196 194 193 194 191 187 183 179 179 179 181 184 179 180 177 173 174 180 181 177 163 159 153 156 170 183 183 184 156 152 139 113 78 61 53 48 45 51
303 275 252 230 216 208 203 195 193 190 182 177 176 175 172 171 174 173 175 176 176 182 187 191 191 179 177 170 190 179 180 159 180 183 162 180 138 93 73 62 54 52 57
296 274 251 232 226 226 214 205 197 191 186 182 180 171 160 156 167 174 177 180 181 185 192 193 197 202 198 192 170 169 154 153 211 207 162 191 142 126 103 91 76 68 64
295 277 261 246 238 228 216 212 206 195 192 189 181 173 173 180 180 172 181 182 183 190 193 185 196 204 195 186 168 166 169 170 188 176 144 177 163 151 133 107 99 94 87
297 285 273 260 252 238 222 216 209 202 197 193 186 182 181 180 183 175 173 173 178 183 187 181 183 195 183 170 169 169 162 129 95 102 133 161 176 164 138 117 112 119 116
294 287 279 266 256 247 230 223 212 199 205 204 196 191 189 189 194 188 178 175 176 178 169 155 148 147 145 154 153 135 137 137 160 201 182 153 161 142 140 158 150 135 131
282 281 275 265 255 250 238 228 216 211 211 210 205 201 201 199 199 194 183 179 186 185 164 156 149 147 140 150 154 153 159 158 155 186 197 154 149 133 148 185 168 160 146
Height
1521 1524 1528 1531 1534 1537 1539 1542 1544 1546 1548 1550 1552 1553 1554 1555 1555 1555 1555 1554 1554 1553 1553 1552 1552 1551 1551 1551 1551 1550 1550 1549 1549 1548 1548 1547 1546 1545 1545 1544 1543 1543 1542
1519 1523 1526 1529 1533 1535 1538 1540 1543 1545 1547 1549 1550 1551 1552 1553 1554 1554 1553 1552 1552 1551 1551 1550 1550 1550 1549 1549 1549 1549 1548 1548 1547 1547 1546 1545 1544 1544 1543 1543 1542 1542 1541
1518 1521 1524 1527 1531 1533 1536 1539 1541 1544 1545 1547 1548 1549 1550 1551 1551 1552 1551 1551 1550 1549 1549 1548 1548 1547 1547 1547 1547 1546 1546 1546 1545 1545 1544 1543 1542 1542 1541 1541 1541 1540 1540
1515 1519 1522 1525 1528 1531 1534 1536 1539 1541 1543 1544 1545 1547 1548 1548 1549 1549 1549 1549 1548 1547 1546 1546 1546 1545 1545 1545 1544 1544 1544 1543 1543 1542 1542 1541 1540 1540 1539 1539 1539 1539 1539
1513 1516 1520 1523 1526 1529 1531 1533 1536 1538 1540 1541 1543 1544 1545 1545 1546 1547 1547 1546 1546 1545 1544 1544 1543 1543 1543 1543 1543 1542 1542 1541 1541 1540 1539 1539 1538 1537 1537 1537 1536 1536 1536
1511 1514 1517 1520 1523 1526 1528 1530 1533 1535 1537 1539 1540 1541 1542 1543 1543 1544 1544 1544 1543 1543 1542 1542 1541 1541 1541 1541 1541 1540 1540 1539 1539 1538 1537 1537 1536 1535 1534 1534 1534 1534 1534
1508 1511 1514 1517 1520 1522 1525 1527 1530 1532 1534 1536 1537 1538 1539 1540 1540 1541 1541 1541 1541 1540 1540 1540 1539 1539 1539 1539 1539 1538 1538 1537 1537 1536 1535 1535 1534 1533 1532 1531 1531 1531 1531
1504 1508 1511 1514 1516 1519 1522 1524 1526 1528 1530 1532 1534 1535 1536 1537 1537 1538 1538 1538 1538 1538 1538 1537 1537 1537 1536 1536 1536 1536 1536 1535 1535 1534 1533 1532 1532 1530 1529 1529 1528 1528 1528
1501 1504 1507 1510 1513 1515 1518 1520 1523 1524 1526 1528 1530 1532 1533 1533 1534 1534 1535 1535 1535 1535 1535 1535 1534 1534 1533 1533 1533 1533 1533 1533 1532 1531 1531 1530 1529 1528 1527 1526 1525 1525 1525
1497 1500 1503 1506 1509 1511 1513 1516 1518 1520 1522 1524 1525 1527 1529 1530 1531 1531 1532 1532 1531 1532 1532 1531 1531 1531 1530 1530 1530 1530 1530 1530 1529 1529 1528 1527 1526 1525 1523 1523 1522 1522 1522
1494 1497 1499 1502 1504 1507 1509 1511 1513 1515 1517 1519 1520 1522 1524 1526 1526 1527 1528 1528 1528 1528 1528 1528 1527 1527 1527 1526 1526 1526 1526 1526 1526 1525 1525 1523 1522 1521 1520 1519 1518 1518 1518
1490 1492 1495 1497 1500 1502 1504 1507 1509 1510 1512 1514 1516 1518 1519 1520 1521 1523 1523 1524 1524 1524 1524 1523 1523 1523 1523 1522 1522 1522 1522 1522 1522 1522 1521 1520 1519 1517 1516 1515 1515 1514 1514
1486 1489 1491 1492 1495 1497 1498 1501 1503 1504 1507 1509 1511 1512 1514 1515 1517 1518 1519 1519 1520 1519 1519 1519 1519 1519 1518 1518 1518 1518 1518 1519 1518 1518 1517 1516 1515 1514 1513 1512 1511 1510 1510
1482 1484 1486 1488 1489 1491 1493 1495 1497 1499 1501 1503 1505 1507 1509 1510 1512 1513 1514 1514 1515 1515 1515 1515 1514 1514 1514 1514 1514 1514 1514 1515 1515 1514 1514 1513 1512 1511 1509 1508 1507 1507 1506
1479 1479 1481 1482 1484 1486 1488 1489 1491 1493 1495 1497 1499 1501 1503 1505 1506 1507 1508 1509 1511 1510 1510 1510 1510 1509 1510 1510 1510 1510 1511 1511 1511 1510 1510 1509 1509 1507 1506 1505 1504 1503 1503
1475 1475 1476 1477 1479 1480 1482 1484 1485 1487 1489 1491 1494 1495 1497 1500 1501 1502 1503 1504 1505 1506 1506 1505 1505 1506 1506 1506 1507 1507 1507 1507 1507 1507 1506 1506 1505 1505 1504 1502 1501 1500 1500
1471 1471 1473 1473 1474 1475 1476 1478 1480 1482 1484 1486 1488 1490 1492 1494 1495 1496 1497 1498 1499 1500 1500 1501 1501 1501 1502 1503 1503 1503 1503 1503 1503 1503 1503 1503 1502 1502 1501 1500 1499 1498 1498
1468 1468 1469 1469 1470 1471 1472 1474 1475 1477 1479 1480 1482 1484 1487 1488 1489 1490 1491 1492 1493 1494 1495 1495 1496 1496 1497 1498 1499 1499 1499 1499 1500 1500 1499 1499 1499 1499 1498 1497 1496 1496 1496
1464 1465 1465 1465 1466 1467 1469 1470 1471 1473 1474 1476 1477 1479 1481 1483 1484 1484 1485 1486 1487 1488 1488 1490 1490 1491 1492 1493 1494 1495 1495 1496 1496 1496 1496 1497 1496 1496 1495 1495 1495 1494 1494
1461 1461 1461 1462 1463 1464 1465 1466 1467 1468 1470 1471 1473 1474 1475 1477 1478 1479 1479 1480 1481 1482 1483 1484 1485 1486 1487 1488 1489 1490 1491 1492 1492 1493 1493 1493 1493 1493 1493 1493 1493 1493 1493
1458 1458 1458 1458 1459 1460 1461 1461 1463 1464 1465 1466 1468 1469 1470 1471 1472 1473 1474 1474 1475 1476 1477 1478 1479 1480 1481 1482 1483 1485 1486 1487 1488 1489 1489 1489 1489 1490 1490 1491 1491 1491 1491
1454 1454 1454 1454 1454 1455 1456 1457 1458 1458 1459 1461 1462 1463 1464 1465 1466 1467 1468 1469 1470 1471 1471 1472 1473 1475 1476 1477 1479 1480 1481 1482 1484 1486 1485 1486 1486 1487 1487 1488 1489 1489 1490
1450 1449 1449 1449 1449 1450 1451 1451 1452 1453 1454 1455 1456 1457 1458 1459 1460 1461 1462 1463 1464 1465 1466 1468 1468 1469 1471 1472 1474 1475 1476 1478 1480 1481 1482 1482 1483 1483 1484 1485 1486 1487 1488
1445 1445 1444 1444 1444 1444 1445 1446 1446 1447 1447 1448 1449 1450 1451 1452 1454 1455 1456 1457 1458 1460 1461 1461 1463 1464 1466 1467 1469 1471 1472 1474 1475 1477 1479 1479 1479 1480 1481 1483 1484 1485 1486
1440 1439 1439 1438 1438 1438 1439 1439 1440 1440 1440 1441 1442 1444 1445 1446 1447 1449 1450 1451 1452 1454 1455 1456 1457 1459 1460 1462 1464 1465 1467 1469 1471 1473 1475 1476 1476 1477 1478 1480 1481 1482 1484
1435 1434 1433 1432 1431 1431 1432 1432 1433 1433 1433 1434 1435 1436 1438 1439 1441 1441 1443 1445 1447 1448 1450 1451 1452 1454 1456 1457 1459 1460 1462 1465 1467 1469 1470 1472 1473 1474 1476 1477 1478 1480 1481